{"data":{"norad_id":52899,"intl_designator":"2022-065F","name":"SNUGLITE-II","alt_names":[],"object_type":"PAYLOAD","status":"ACTIVE","operator":null,"country":"SKOR","launch_date":"2022-06-21","launch_site_code":"NSC","launch_vehicle":null,"mission":null,"orbit_class":"UNKNOWN","rcs_meters":null,"size_class":null,"mass_kg":null,"dimensions":null,"purposes":[],"wikipedia_slug":null,"has_3d_model":false,"image_url":null,"decayed_at":null,"tle_current":{"epoch":"2026-09-20T05:03:07.346880Z","epoch_age_seconds":159563,"freshness":"FRESH","line1":"1 52899U 22065F   26263.21050170  .00000593  00000+0  12105-3 0  9991","line2":"2 52899  98.2342  47.9569 0008687  86.9044 273.3153 14.64491944224900","mean_motion":14.64491944,"eccentricity":0.0008687,"inclination_deg":98.2342,"raan_deg":47.9569,"arg_perigee_deg":86.9044,"mean_anomaly_deg":273.3153,"bstar":0.00012105,"rev_number":22490,"period_min":98.327614972527,"perigee_km":672.57671478868,"apogee_km":684.83727554588,"semimajor_km":7056.8439951673,"source":"CELESTRAK","updated_at":"2026-09-21T09:00:08.760777Z"}}}